星链-1726 (STARLINK-1726 )

导读

STARLINK-1726是美国SpaceX公司星链(Starlink)卫星互联网项目中的一颗卫星,于2020年9月3日发射。星链计划旨在构建全球卫星互联网星座,为全球偏远地区、海洋等网络覆盖薄弱区域提供高速网络服务,该卫星是星链早期部署批次中的一员,服务于全球卫星通信网络的搭建。

基本信息
目录编号:
46362
目录名称:
STARLINK-1726
国际标识:
2020-062AP
轨道中心:
EARTH
卫星名称:
星链-1726
卫星全名:
星链-1726 (STARLINK-1726 )
卫星状态:
已陨落 最后检测时间 2026-03-23
发射日期:
2020-09-03 UTC
国别 :
美国 (US)
星等 :
--
轨道信息
数据来源 国际轨道数据
星历时间: 2026-03-24T01:06:23+0800
轨道信息已过期171天
半长轴: 6527.36km
偏心率: 0.0005596
轨道倾角: 53.022°
近地点辐角 307.406°
升交点赤经 186.794°
平近点角 52.648°
近地点: 145.57km
远地点: 152.876km
周期: 87.471分钟
每日圈数: 16.462526
详细信息
固有亮度:
5
最大亮度:
2.5
卫星平台:
Starlink V1.0
覆盖范围:
全球
运营商:
太空探索技术公司
运营商所在国:
美国
制造商(研发单位):
太空探索技术公司
制造商所在国:
美国
使用方式:
暂无
卫星简介
星链(Starlink)计划是由太空探索技术公司(SpaceX)提出的一个巨型低轨卫星互联网星座项目,计划在2019年至2024年间在太空搭建由约1.2万颗卫星组成的“星链”网络,其中1584颗将部署在地球上空550千米处的近地轨道,并从2020年开始工作。该卫星仍在工作。
与全量物体交会距离演化趋势
与全量物体交会风险概率演化趋势